This is the latest recevied weather packets stored in our database for station/object N3FYI-5. If no packets are shown the sender has not sent any weather packets the latest 10 day(s).
| Time | Temp. | Humidity | Pressure | Rain* | Wind** | Luminosity | Snow |
|---|---|---|---|---|---|---|---|
| 1777640867 | 4.44° C | 77% | 1023.8 hPa | 0 mm | - | - | - |
| 1777640387 | 4.44° C | 77% | 1023.9 hPa | 0 mm | - | - | - |
| 1777639905 | 3.89° C | 81% | 1023.8 hPa | 0 mm | - | - | - |
| 1777639425 | 3.33° C | 82% | 1023.9 hPa | 0 mm | - | - | - |
| 1777638947 | 3.33° C | 86% | 1024.1 hPa | 0 mm | - | - | - |
| 1777638465 | 2.78° C | 87% | 1024.1 hPa | 0 mm | - | - | - |
| 1777637999 | 2.22° C | 84% | 1024.1 hPa | 0 mm | - | - | - |
| 1777637504 | 1.67° C | 82% | 1024 hPa | 0 mm | - | - | - |
| 1777637024 | 1.67° C | 76% | 1024 hPa | 0 mm | - | - | - |
| 1777636544 | 1.11° C | 68% | 1024.1 hPa | 0 mm | - | - | - |
| 1777636064 | 1.11° C | 64% | 1024.1 hPa | 0 mm | - | - | - |
| 1777635586 | 0.56° C | 61% | 1024.1 hPa | 0 mm | - | - | - |
| 1777635105 | 0.56° C | 61% | 1024 hPa | 0 mm | - | - | - |
| 1777634625 | 0° C | 62% | 1023.8 hPa | 0 mm | - | - | - |
| 1777634144 | 0° C | 62% | 1023.6 hPa | 0 mm | - | - | - |
| 1777633668 | 0° C | 62% | 1023.4 hPa | 0 mm | - | - | - |
| 1777633187 | -0.56° C | 62% | 1022.9 hPa | 0 mm | - | - | - |
| 1777632704 | -0.56° C | 63% | 1023.2 hPa | 0 mm | - | - | - |
| 1777632225 | -1.11° C | 63% | 1023.4 hPa | 0 mm | - | - | - |
| 1777631744 | -1.11° C | 63% | 1023.3 hPa | 0 mm | - | - | - |
| 1777631266 | -1.11° C | 63% | 1023.2 hPa | 0 mm | - | - | - |
| 1777630787 | -0.56° C | 63% | 1023.4 hPa | 0 mm | - | - | - |
| 1777630304 | -0.56° C | 63% | 1023.2 hPa | 0 mm | - | - | - |
| 1777629824 | -0.56° C | 63% | 1023.3 hPa | 0 mm | - | - | - |
| 1777629349 | -0.56° C | 63% | 1023.3 hPa | 0 mm | - | - | - |
* Rain latest hour (hover to see other rain measurements)
** Current wind speed in m/s (hover to see current wind gust speed)